Probability
0 0 0 0 0 0 1 2 2 2 1 1 2 3 2 1 0 0 0 1 2 2 1 0 0 0 0 0 0 0 0 0 0 0 0 0 0 0
0 0 0 0 0 0 0 1 1 1 1 1 2 3 2 1 0 0 0 0 1 1 0 0 0 0 0 0 0 0 0 0 0 0 0 0 0 0
0 0 0 0 0 0 0 0 0 0 1 1 3 3 2 1 0 0 0 0 0 0 0 0 0 0 0 0 0 0 0 0 0 0 0 0 0 0
0 0 0 0 0 0 0 0 0 0 0 1 2 3 3 1 0 0 0 0 0 0 0 0 0 0 0 0 0 0 0 0 0 0 0 0 0 0
0 0 0 0 0 0 0 0 0 0 0 1 1 3 3 2 1 0 0 0 0 0 0 0 0 0 0 0 0 0 0 0 0 0 0 0 0 0
0 0 0 0 0 0 0 0 0 0 0 0 1 2 3 2 1 0 0 0 0 0 0 0 0 0 0 0 0 0 0 0 0 0 0 0 0 0
0 0 0 0 0 0 0 0 0 0 0 0 0 1 2 2 1 0 0 0 0 0 0 0 0 0 0 0 0 0 0 0 0 0 0 0 0 0
0 0 0 0 0 0 0 0 0 0 0 0 0 0 1 1 1 0 0 0 0 0 0 0 0 0 0 0 0 0 0 0 0 0 0 0 0 0
0 0 0 0 0 0 0 0 0 0 0 0 0 0 0 0 0 0 0 0 0 0 0 0 0 0 0 0 0 0 0 0 0 0 0 0 0 0
0 0 0 0 0 0 0 0 0 0 0 0 0 0 0 0 0 0 0 0 0 0 0 0 0 0 0 0 0 0 0 0 0 0 0 0 0 0
0 0 0 0 0 0 0 0 0 0 0 0 0 0 0 0 1 1 1 0 0 0 0 0 0 0 0 0 0 0 0 0 0 0 0 0 0 0
0 0 0 0 0 0 0 0 0 0 0 0 0 0 0 0 1 2 2 1 0 0 0 0 0 0 0 0 0 0 0 0 0 0 0 0 0 0
0 0 0 0 0 0 0 0 0 0 0 0 0 0 0 0 0 1 1 1 0 0 0 0 0 0 0 0 0 0 0 0 0 0 0 0 0 0
0 0 0 0 0 0 0 0 0 0 0 0 0 0 0 0 0 0 0 0 0 0 0 0 0 0 0 0 0 0 0 0 0 0 0 0 0 0
0 0 0 0 0 0 0 0 0 0 0 0 0 0 0 0 0 0 0 0 0 0 0 0 0 0 0 0 0 0 0 0 0 0 0 0 0 0
0 0 0 0 0 0 0 0 0 0 0 0 0 0 0 0 0 0 0 0 0 0 0 0 0 0 0 0 0 0 0 0 0 0 0 0 0 0
0 0 0 0 0 0 0 0 0 0 0 0 0 0 0 0 0 0 0 0 0 0 0 0 0 0 0 0 0 0 0 0 0 0 0 0 0 0
0 0 0 0 0 0 0 0 0 0 0 0 0 0 0 0 0 0 0 0 0 0 0 0 0 0 0 0 0 0 0 0 0 0 0 0 0 0
0 0 0 0 0 0 0 0 0 0 0 0 0 0 0 0 0 0 0 0 0 0 0 0 0 0 0 0 0 0 0 0 0 0 0 0 0 0
0 0 0 0 0 0 0 0 0 0 0 0 0 0 0 0 0 0 0 0 0 0 0 0 0 0 0 0 0 0 0 0 0 0 0 0 0 0
0 0 0 0 0 0 0 0 0 0 1 1 1 0 0 0 0 0 0 0 0 0 0 0 0 0 0 0 0 0 0 0 0 0 0 0 0 0
0 0 0 0 0 0 0 0 0 0 1 1 1 0 0 0 0 0 0 0 0 0 0 0 0 0 0 0 0 0 0 0 0 0 0 0 0 0
0 0 0 0 0 0 0 0 0 0 0 1 0 0 0 0 0 0 0 0 0 0 0 0 0 0 0 0 0 0 0 0 0 0 0 0 0 0
Wind_Speed
4 4 3 2 2 2 3 3 3 3 4 2 2 2 2 2 3 4 4 5 5 4 4 4 5 5 6 6 7 7 7 7 8 9 10 11 12 12
3 4 3 2 2 2 3 3 3 4 4 2 2 2 3 3 4 4 4 5 5 5 5 5 5 6 6 6 6 7 7 8 8 9 10 11 11 12
4 4 4 3 3 2 2 3 3 3 4 3 2 2 3 3 3 3 4 4 3 4 5 5 6 6 6 6 6 7 7 8 8 9 10 11 11 12
4 4 4 3 3 3 3 3 3 3 3 4 3 3 4 4 4 3 3 3 3 4 5 6 6 6 6 6 6 6 7 8 8 9 10 10 11 12
4 4 4 4 4 3 3 3 3 3 3 3 3 3 3 2 3 3 3 3 4 4 5 6 6 6 6 6 6 6 7 7 8 8 9 10 11 11
4 4 4 5 5 4 4 4 3 3 3 3 3 2 2 2 3 3 3 3 3 3 4 5 5 6 6 6 6 6 7 7 8 8 8 9 9 10
3 3 4 4 5 4 3 4 3 3 3 3 3 3 2 2 3 3 3 3 4 3 4 4 4 4 4 5 6 6 7 7 7 7 8 8 8 8
3 3 3 4 4 5 5 5 5 4 4 3 3 4 4 4 3 3 3 3 3 2 4 4 4 4 4 4 5 6 6 6 7 7 7 7 7 7
3 3 2 2 3 3 3 4 4 4 5 5 5 5 5 4 4 4 4 4 4 3 4 5 4 5 4 4 5 6 7 6 6 6 6 7 7 8
4 4 3 3 3 3 3 2 3 3 4 4 4 5 5 4 4 4 4 4 4 2 3 4 4 5 4 4 4 5 6 6 6 6 6 7 7 7
3 3 4 3 3 3 3 3 3 2 2 3 4 4 5 4 4 2 2 3 3 3 2 3 3 5 4 4 3 4 5 6 6 6 6 7 7 7
2 3 4 4 3 3 3 3 3 3 2 2 3 3 4 3 3 3 3 3 2 2 1 2 3 3 4 3 3 3 3 5 6 6 7 6 6 4
3 3 2 3 4 3 4 3 3 3 3 3 3 3 2 2 2 2 3 3 3 3 2 2 2 2 3 4 4 3 3 3 4 4 5 6 6 5
3 2 2 3 3 3 3 3 3 3 2 2 2 2 2 2 2 2 3 3 3 4 3 3 2 3 3 4 4 4 4 3 3 4 4 5 5 5
2 3 3 4 3 3 3 3 3 2 2 2 2 2 3 3 2 2 2 2 3 3 3 3 3 3 3 4 4 4 4 3 3 3 4 4 4 3
2 3 4 4 3 2 2 2 2 2 2 2 2 2 2 2 2 2 2 2 2 2 3 3 4 4 4 5 4 4 4 3 3 4 4 4 4 3
2 2 2 2 2 2 1 1 1 2 2 2 2 2 2 1 2 2 2 2 2 2 2 2 3 3 4 4 4 4 4 4 4 3 4 4 4 3
3 2 2 2 2 2 2 2 2 2 2 2 2 2 2 2 2 1 1 2 2 2 3 2 2 2 2 2 3 4 4 4 4 4 3 4 4 3
3 2 2 2 2 2 2 2 2 2 2 2 2 2 2 2 2 2 2 2 2 3 3 2 2 2 3 3 2 3 4 4 3 3 3 3 4 4
2 2 2 2 2 2 2 2 2 2 2 2 2 2 2 2 2 2 2 2 3 3 3 2 2 2 3 4 3 3 4 4 3 4 4 3 3 4
2 2 2 2 2 3 2 2 2 3 3 2 2 2 2 2 2 2 2 3 3 3 3 3 3 4 3 2 3 3 3 3 4 3 4 3 3 3
2 2 2 2 2 3 3 3 2 3 3 2 2 2 2 2 2 3 2 3 3 3 3 3 2 2 2 2 3 4 4 4 4 4 4 3 2 2
2 2 2 2 2 3 3 3 3 3 3 2 2 2 2 2 2 2 3 2 2 2 3 2 2 2 2 2 3 3 4 4 3 3 2 3 4 5
Wind_Direction
210 212 214 218 231 231 221 224 232 249 251 243 251 259 277 278 291 281 285 288 277 275 280 284 289 295 299 302 305 305 308 312 313 313 312 314 316 318
209 213 215 218 221 235 230 233 243 245 254 253 258 264 275 276 284 284 286 288 269 269 273 278 283 290 295 299 302 304 306 308 310 310 312 314 315 318
206 211 216 218 217 220 234 238 246 244 250 263 261 259 269 277 281 285 284 281 278 275 274 277 283 287 290 293 297 303 305 306 306 308 310 311 313 315
208 211 216 217 219 223 226 238 244 247 241 249 257 261 271 278 282 283 285 284 287 281 270 270 276 280 284 287 292 296 300 305 306 305 305 306 309 310
213 215 218 217 223 223 229 235 248 250 244 238 254 263 269 279 286 290 291 285 290 285 265 265 272 275 277 279 285 291 297 299 299 301 305 308 308 309
218 223 224 222 223 226 230 234 242 245 237 236 247 257 267 281 282 292 293 290 287 292 281 276 268 263 265 271 278 287 292 294 294 298 304 306 307 309
224 228 231 231 237 240 238 233 233 240 238 235 241 255 262 275 278 289 288 292 288 289 294 276 266 263 263 262 268 284 288 290 292 297 301 307 310 311
225 232 234 227 226 234 240 242 240 233 238 239 243 248 258 267 276 277 281 287 290 296 296 288 279 270 269 268 282 285 285 290 296 296 302 306 309 310
229 231 237 238 234 235 227 232 246 247 241 244 249 249 255 257 260 267 271 279 286 299 293 282 283 278 277 274 278 273 278 287 290 298 303 305 306 305
230 232 233 232 233 239 240 243 254 258 256 251 253 261 262 264 258 260 267 279 288 282 288 282 291 292 289 275 267 271 281 289 293 298 302 305 304 301
229 232 232 230 223 229 233 238 251 268 275 268 275 279 283 277 275 262 258 263 281 284 286 286 300 305 291 276 275 275 285 292 297 299 303 305 308 304
217 220 222 228 225 235 240 239 249 267 274 270 268 268 268 260 257 250 247 252 273 275 275 289 297 314 296 285 295 295 289 292 295 296 299 303 310 300
216 219 218 215 228 240 254 253 258 271 268 263 266 269 270 263 258 264 264 256 259 266 265 271 285 292 285 297 297 295 298 303 296 290 290 300 305 300
221 222 216 211 227 242 250 258 267 275 262 262 266 271 273 271 275 279 281 283 278 275 267 254 261 269 282 290 294 304 305 304 304 301 302 303 293 292
223 215 216 220 232 231 224 235 245 252 252 254 262 270 276 280 282 282 288 289 294 289 277 269 266 267 269 275 286 296 302 303 302 304 302 296 290 291
215 198 204 213 226 232 228 230 239 243 252 256 262 270 280 282 284 296 297 293 294 299 300 288 278 267 267 270 273 283 293 294 299 297 296 293 289 284
204 207 210 211 217 222 234 245 247 242 248 259 261 263 269 273 286 297 304 297 286 292 308 318 308 291 279 278 270 274 286 292 295 298 295 290 289 290
206 205 211 218 218 218 223 232 245 251 250 255 256 256 261 269 282 291 286 278 283 292 299 308 313 305 288 276 257 276 280 287 295 296 293 288 287 292
212 212 214 219 221 221 224 231 245 254 250 248 250 254 256 262 271 279 277 274 278 285 292 296 297 297 294 296 283 242 281 293 296 294 292 290 289 294
222 221 224 228 228 229 229 230 238 248 245 241 242 245 245 250 258 268 271 280 284 286 290 289 287 284 280 287 293 296 288 290 290 289 293 296 295 294
222 226 227 230 232 234 235 235 235 244 247 239 234 236 238 240 247 258 266 278 279 281 286 290 294 291 283 280 278 290 306 293 285 283 290 291 298 306
230 232 232 235 236 233 231 231 234 244 243 239 237 236 238 243 245 248 257 266 272 277 285 293 308 304 290 277 282 295 304 313 303 288 280 274 280 283
234 236 239 243 245 241 233 227 235 241 236 236 240 240 239 244 250 255 259 260 272 282 288 291 304 307 298 286 284 292 301 309 317 323 324 318 297 289